Location: Hardenberg
(52.5670°N, 6.6170°E)
Time: 08:04:26
(UTC+02:00)

ISS - Pass Details

Date: 20 May 2021
Orbit: 417 x 422 km, 51.6° (Epoch: 12 June)

Event Time Altitude Azimuth Distance (km) Brightness Sun altitude
Rises 22:54:02 0° 260° (W) 2,363 0.4 -9.8°
Reaches altitude 10° 22:56:07 10° 259° (WSW) 1,501 -0.6 -10.0°
Maximum altitude 22:59:29 74° 174° (S) 441 -3.8 -10.3°
Drops below altitude 10° 23:02:51 10° 89° (E) 1,506 -1.3 -10.5°
Enters shadow 23:04:23 - 88° (E) 2,134 -0.5 -10.7°
